Flag for Italy Weather past 2 weeks in Ancona, Italy

Now
70 °F

Passing clouds.


Feels Like: 70 °F
Forecast: 66 / 71 °F
Wind: 22 mph from Northeast

Location: Falconara

Current Time: Sep 1, 2014 at 11:40:03 PM

Latest Report: Sep 1, 2014 at 10:50 PM


Visibility: N/A

Pressure: 29.74 "Hg

Humidity: 69%

Dew point: 59 °F

Location of AnconaLocation

Historic Weather in Ancona — Graph

°F

Ancona temperature yesterday

Maximum temperature yesterday: 81 °F (at 10:50 AM)
Minimum temperature yesterday: 64 °F (at 4:50 AM)
Average temperature yesterday: 73 °F

Past Weeks' High & Low Weather Summary

 TemperatureHumidityPressure
High86 °F (Aug 27, 4:50 PM)100% (Aug 21, 10:50 PM)30.07 "Hg (Aug 21, 10:50 PM)
Low55 °F (Aug 18, 5:50 AM)32% (Aug 18, 11:50 AM)29.62 "Hg (Sep 1, 1:53 PM)
Average72 °F74%29.92 "Hg
* Reported Aug 17 9:50 PM — Sep 1 9:50 PM, Ancona, Weather by CustomWeather, © 2014

Note: Actual official high and low records may vary slightly from our data, if they occured in-between our weather recording intervals... More about our weather records

Advertising

Ancona weather history for previous 24 hours

 ConditionsComfort  
Time TempWeatherWind HumidityBarometerVisibility
9:50 PM
Sep 1
70 °FPartly cloudy.21 mph73%29.71 "HgN/A
8:50 PM70 °FPartly cloudy.22 mph73%29.80 "HgN/A
7:50 PM68 °FSprinkles. Scattered clouds.17 mph78%29.68 "HgN/A
6:50 PM66 °FScattered showers. Broken clouds.14 mph88%29.65 "HgN/A
5:50 PM68 °FBroken clouds.16 mph83%29.65 "HgN/A
4:50 PM68 °FLight rain. Broken clouds.13 mph88%29.62 "HgN/A
3:50 PM68 °FScattered showers. Partly sunny.3 mph83%29.62 "HgN/A
3:03 PM64 °FRain showers. Broken clouds.6 mph94%29.62 "HgN/A
1:53 PM64 °FRain. Scattered clouds.9 mph94%29.62 "Hg5 mi
12:50 PM63 °FLight rain. Broken clouds.6 mph88%29.65 "HgN/A
11:50 AM63 °FBroken clouds.10 mph88%29.65 "HgN/A
10:50 AM61 °FLight rain. Partly sunny.6 mph94%29.68 "HgN/A
9:50 AM61 °FLight rain. Partly sunny.8 mph94%29.65 "HgN/A
8:50 AM63 °FPartly sunny.9 mph94%29.68 "HgN/A
7:50 AM63 °FLight rain. Partly sunny.9 mph94%29.71 "HgN/A
6:50 AM63 °FLight rain. Partly cloudy.9 mph100%29.71 "HgN/A
5:50 AM64 °FThunderstorms. Partly cloudy.17 mph88%29.71 "HgN/A
5:00 AM63 °FThunderstorms. Partly cloudy.31 mph100%29.68 "Hg4 mi
3:50 AM73 °FPassing clouds.3 mph65%29.71 "HgN/A
2:50 AM72 °FPassing clouds.3 mph65%29.68 "HgN/A
12:50 AM72 °FPassing clouds.2 mph73%29.68 "HgN/A
11:50 PM
Aug 31
73 °FPassing clouds.5 mph74%29.71 "HgN/A
Weather by CustomWeather, © 2014

See weather overviewHow to use our weather pages